{"data":{"norad_id":69166,"epoch":"2026-09-19T22:32:34.751904Z","epoch_age_seconds":75348,"freshness":"FRESH","line1":"1 69166U 26111U   26262.93929111  .00022189  00000+0  66572-3 0  9992","line2":"2 69166  53.1586  68.2725 0001146  87.9433 272.1701 15.34408850 18810","mean_motion":15.3440885,"eccentricity":0.0001146,"inclination_deg":53.1586,"raan_deg":68.2725,"arg_perigee_deg":87.9433,"mean_anomaly_deg":272.1701,"bstar":0.00066572,"rev_number":1881,"period_min":93.847216796227,"perigee_km":461.89297899138,"apogee_km":463.46089354558,"semimajor_km":6840.8139362685,"source":"CELESTRAK","updated_at":"2026-09-20T09:00:44.093001Z"}}